Location: Izdebno
(52.6670°N, 16.2170°E)
Time: 11:20:47
(UTC+01:00)

Transit 2A - Pass Details

Date: 06 February 2023
Orbit: 591 x 964 km, 66.7° (Epoch: 21 March)

Event Time Altitude Azimuth Distance (km) Brightness Sun altitude
Rises 19:07:47 0° 271° (W) 3,166 10.8 -21.1°
Reaches altitude 10° 19:10:28 10° 285° (WNW) 2,311 9.6 -21.5°
Maximum altitude 19:14:51 25° 340° (NNW) 1,601 7.8 -22.2°
Enters shadow 19:18:21 15° 26° (NNE) 2,170 8.1 -22.7°
Drops below altitude 10° 19:19:36 10° 35° (NE) 2,524 - -22.9°
Sets 19:22:40 0° 48° (NE) 3,524 - -23.4°
